Location: Bucaritos
(10.0779°N, 67.0369°W)
Time: 05:26:07
(UTC+00:00)

Cosmos 405 Rocket - Pass Details

Date: 27 June 2022
Orbit: 484 x 547 km, 81.3° (Epoch: 18 August)

Event Time Altitude Azimuth Distance (km) Brightness Sun altitude
Rises 23:10:59 0° 163° (SSE) 2,648 5.9 -5.0°
Reaches altitude 10° 23:13:22 10° 150° (SSE) 1,771 4.9 -5.5°
Maximum altitude 23:16:36 25° 93° (E) 1,104 3.8 -6.2°
Drops below altitude 10° 23:19:53 10° 37° (NE) 1,797 5.3 -6.9°
Sets 23:22:19 0° 24° (NNE) 2,696 6.4 -7.5°
